Weather History for KRDM - March, 2013

Change the Weather History Date:

Wednesday, March 27, 2013

  Actual Average Record
Temperature  
Mean Temperature 44 °F 42 °F  
Max Temperature 59 °F 56 °F 77 °F (2015)
Min Temperature 28 °F 27 °F 12 °F (2008)
Degree Days  
Heating Degree Days 21 23  
Month to date heating degree days 695 685  
Since 1 July heating degree days 5162 5358  
Cooling Degree Days 0 0  
Month to date cooling degree days 0 0  
Year to date cooling degree days 0 0  
Moisture  
Dew Point 35 °F    
Average Humidity 68    
Maximum Humidity 100    
Minimum Humidity 36    
Precipitation  
Precipitation 0.02 in 0.02 in 0.20 in (1979)
Month to date precipitation 0.22 0.57  
Year to date precipitation 0.64 2.19  
Sea Level Pressure  
Sea Level Pressure 29.93 in    
Wind  
Wind Speed 4 mph (WSW)    
Max Wind Speed 21 mph    
Max Gust Speed 25 mph    
Visibility 8 miles    
Events Rain    
T = Trace of Precipitation, MM = Missing Value Source: NWS Daily Summary

Daily Weather History Graph

Daily Weather History Graph

Search for Another Location

Airport or City:

Trip Planner

Search our weather history database for the weather conditions in past years. The results will help you decide how hot, cold, wet, or windy it might be!

Date:

Astronomy

Mar. 27, 2013 Rise Set
Actual Time 6:54 AM PDT 7:26 PM PDT
Civil Twilight 6:25 AM PDT 7:55 PM PDT
Nautical Twilight 5:50 AM PDT 8:29 PM PDT
Astronomical Twilight 5:15 AM PDT 9:05 PM PDT
Moon 8:19 PM PDT (3/27) 6:46 AM PDT (3/27)
Length of Visible Light 13h 30m
Length of Day
12h 31m
Full, 100% of the Moon is Illuminated
Mar 27
Full
Apr 2
Last Quarter
Apr 10
New
Apr 18
First Quarter
Apr 25
Full

Hourly Weather History & Observations

Time (PDT) Temp. Windchill Dew Point Humidity Pressure Visibility Wind Dir Wind Speed Gust Speed Precip Events Conditions
12:56 AM 37.0 °F - 34.0 °F 89% 29.96 in 10.0 mi Calm Calm - N/A   Partly Cloudy
1:56 AM 33.1 °F - 32.0 °F 96% 29.95 in 10.0 mi Calm Calm - N/A   Overcast
2:56 AM 33.1 °F - 30.0 °F 89% 29.94 in 8.0 mi Calm Calm - N/A   Clear
3:32 AM 28.4 °F - 28.4 °F 100% 29.93 in 1.8 mi Calm Calm - N/A   Clear
3:51 AM 30.2 °F - 30.2 °F 100% 29.92 in 2.0 mi Calm Calm - N/A   Clear
3:56 AM 30.0 °F 26.5 °F 30.0 °F 100% 29.95 in 2.0 mi SSE 3.5 mph - N/A   Clear
4:03 AM 28.4 °F 24.6 °F 26.6 °F 93% 29.92 in 1.0 mi SSE 3.5 mph - N/A   Clear
4:19 AM 30.2 °F 26.7 °F 28.4 °F 93% 29.92 in 3.0 mi South 3.5 mph - N/A   Clear
4:56 AM 30.0 °F 25.2 °F 28.0 °F 92% 29.95 in 6.0 mi SSE 4.6 mph - N/A   Clear
5:56 AM 30.0 °F - 28.9 °F 96% 29.95 in 8.0 mi Calm Calm - N/A   Mostly Cloudy
6:56 AM 32.0 °F - 30.0 °F 92% 29.95 in 10.0 mi Calm Calm - N/A   Overcast
7:56 AM 35.1 °F 31.0 °F 33.1 °F 92% 29.95 in 9.0 mi ESE 4.6 mph - N/A   Mostly Cloudy
8:56 AM 42.1 °F 40.2 °F 35.1 °F 76% 29.94 in 10.0 mi South 3.5 mph - N/A   Clear
9:56 AM 46.0 °F 44.8 °F 37.0 °F 71% 29.94 in 10.0 mi SE 3.5 mph - N/A   Mostly Cloudy
10:56 AM 50.0 °F - 36.0 °F 59% 29.92 in 10.0 mi Variable 5.8 mph - N/A   Mostly Cloudy
11:56 AM 54.0 °F - 36.0 °F 51% 29.90 in 10.0 mi West 4.6 mph - N/A   Mostly Cloudy
12:56 PM 55.9 °F - 33.1 °F 42% 29.90 in 10.0 mi Calm Calm - N/A   Mostly Cloudy
1:56 PM 57.0 °F - 30.9 °F 37% 29.90 in 10.0 mi WSW 13.8 mph 18.4 mph N/A   Overcast
2:56 PM 57.0 °F - 32.0 °F 39% 29.88 in 10.0 mi Calm Calm - N/A   Mostly Cloudy
3:22 PM 51.8 °F - 41.0 °F 67% 29.91 in 6.0 mi West 17.3 mph 25.3 mph 0.00 in Rain Light Rain
3:30 PM 48.2 °F - 42.8 °F 82% 29.92 in 2.5 mi WSW 15.0 mph 25.3 mph 0.02 in Rain Rain
3:38 PM 48.2 °F - 42.8 °F 82% 29.90 in 6.0 mi NW 8.1 mph 20.7 mph 0.02 in Rain Light Rain
3:56 PM 51.1 °F - 44.1 °F 77% 29.92 in 10.0 mi North 12.7 mph - 0.02 in   Overcast
4:56 PM 54.0 °F - 39.9 °F 59% 29.91 in 10.0 mi NE 8.1 mph - N/A   Clear
5:56 PM 55.0 °F - 37.9 °F 53% 29.91 in 10.0 mi North 6.9 mph - N/A   Mostly Cloudy
6:56 PM 52.0 °F - 37.9 °F 59% 29.94 in 10.0 mi North 6.9 mph - N/A   Mostly Cloudy
7:56 PM 48.0 °F - 39.9 °F 74% 29.95 in 10.0 mi NW 3.5 mph - 0.00 in   Overcast
8:56 PM 46.0 °F 44.8 °F 39.9 °F 79% 29.96 in 10.0 mi NNW 3.5 mph - N/A   Overcast
9:56 PM 45.0 °F - 39.9 °F 82% 29.98 in 10.0 mi Calm Calm - N/A   Overcast
10:56 PM 43.0 °F 39.5 °F 39.0 °F 86% 29.99 in 10.0 mi WSW 5.8 mph - N/A   Overcast
11:56 PM 43.0 °F - 39.0 °F 86% 29.98 in 10.0 mi Calm Calm - N/A   Scattered Clouds